This is the latest recevied weather packets stored in our database for station/object OK1UOJ. If no packets are shown the sender has not sent any weather packets the latest 1 day(s).
| Time | Temp. | Humidity | Pressure | Rain* | Wind** | Luminosity | Snow |
|---|---|---|---|---|---|---|---|
| 1778013853 | 14.44° C | 10% | - | - | 1.79 m/s, 132° | - | - |
| 1778013575 | 15° C | 10% | - | - | 1.79 m/s, 135° | - | - |
| 1778013302 | 15.56° C | 10% | - | - | 2.24 m/s, 135° | - | - |
| 1778013297 | 15.56° C | 10% | - | - | 2.24 m/s, 135° | - | - |
| 1778012747 | 14.44° C | 10% | - | - | 1.79 m/s, 135° | - | - |
| 1778012742 | 14.44° C | 10% | - | - | 1.79 m/s, 135° | - | - |
| 1778012187 | 14.44° C | 10% | - | - | 1.34 m/s, 135° | - | - |
| 1778011911 | 13.89° C | 10% | - | - | 1.34 m/s, 150° | - | - |
| 1778011637 | 13.89° C | 10% | - | - | 1.34 m/s, 173° | - | - |
| 1778011632 | 13.89° C | 10% | - | - | 1.34 m/s, 173° | - | - |
| 1778011355 | 13.89° C | 10% | - | - | 0.89 m/s, 139° | - | - |
| 1778011077 | 13.89° C | 10% | - | - | 0.89 m/s, 135° | - | - |
| 1778010805 | 13.89° C | 10% | - | - | 0.45 m/s, 139° | - | - |
| 1778010800 | 13.89° C | 10% | - | - | 0.45 m/s, 139° | - | - |
| 1778010523 | 13.89° C | 10% | - | - | 1.34 m/s, 131° | - | - |
| 1778009967 | 14.44° C | 10% | - | - | 0.89 m/s, 147° | - | - |
| 1778008857 | 15.56° C | 10% | - | - | 0.45 m/s, 164° | - | - |
| 1778007747 | 16.11° C | 10% | - | - | 0 m/s | - | - |
| 1778007469 | 16.67° C | 10% | - | - | 0 m/s | - | - |
| 1778007196 | 16.67° C | 10% | - | - | 0.45 m/s, 188° | - | - |
| 1778007191 | 16.67° C | 10% | - | - | 0.45 m/s, 188° | - | - |
| 1778006918 | 16.67° C | 10% | - | - | 0.89 m/s, 237° | - | - |
| 1778006914 | 16.67° C | 10% | - | - | 0.89 m/s, 237° | - | - |
| 1778006675 | 16.67° C | 10% | - | - | 0.45 m/s, 198° | - | - |
| 1778006636 | 16.67° C | 10% | - | - | 0.45 m/s, 198° | - | - |
* Rain since midnight (hover to see other rain measurements)
** Current wind speed in m/s (hover to see current wind gust speed)